Location: Albuquerque Trailhead
(34.7934°N, 106.3736°W)
Time: 03:26:39
(UTC+00:00)

Cosmos 2278 Rocket - Pass Details

Date: 20 June 2021
Orbit: 840 x 846 km, 71.0° (Epoch: 29 July)

Event Time Altitude Azimuth Distance (km) Brightness Sun altitude
Rises 05:56:29 0° 340° (NNW) 3,407 6.6 -29.4°
Reaches altitude 10° 05:58:56 10° 342° (NNW) 2,469 5.6 -29.6°
Enters shadow 06:04:03 70° 14° (NNE) 897 2.3 -29.9°
